Time,TemperatureF,DewpointF,PressureIn,WindDirection,WindDirectionDegrees,WindSpeedMPH,WindSpeedGustMPH,Humidity,HourlyPrecipIn,Conditions,Clouds,dailyrainin,SoftwareType,DateUTC
2013-07-23 00:04:00,70.6,11.3,29.75,ENE,68,0.2,0.7,1,0.00,,,0.00,WUHU216HW,2013-07-23 04:04:00,
2013-07-23 00:09:00,70.6,11.3,29.75,South,180,2.5,2.5,1,0.00,,,0.00,WUHU216HW,2013-07-23 04:09:00,
2013-07-23 00:14:00,70.6,11.3,29.74,NNE,23,0.4,2.5,1,0.00,,,0.00,WUHU216HW,2013-07-23 04:14:00,
2013-07-23 00:19:00,70.6,11.3,29.74,NNE,23,0.2,0.4,1,0.00,,,0.00,WUHU216HW,2013-07-23 04:19:00,
2013-07-23 00:24:00,70.6,11.3,29.74,NNW,338,1.1,1.1,1,0.00,,,0.00,WUHU216HW,2013-07-23 04:24:00,
2013-07-23 00:29:00,70.6,11.3,29.74,North,0,1.1,1.1,1,0.00,,,0.00,WUHU216HW,2013-07-23 04:29:00,
2013-07-23 00:35:00,70.6,11.3,29.73,ESE,113,1.8,1.8,1,0.00,,,0.00,WUHU216HW,2013-07-23 04:35:00,
2013-07-23 00:40:00,70.6,11.3,29.73,ENE,68,0.4,1.8,1,0.00,,,0.00,WUHU216HW,2013-07-23 04:40:00,
2013-07-23 00:45:00,70.6,11.3,29.73,SW,225,1.8,1.8,1,0.00,,,0.00,WUHU216HW,2013-07-23 04:45:00,
2013-07-23 00:50:00,70.6,11.3,29.72,SW,225,0.0,1.8,1,0.00,,,0.00,WUHU216HW,2013-07-23 04:50:00,
2013-07-23 00:55:00,70.6,11.3,29.72,WNW,293,0.4,1.8,1,0.00,,,0.00,WUHU216HW,2013-07-23 04:55:00,
2013-07-23 01:00:00,70.6,11.3,29.72,NW,315,0.9,0.9,1,0.00,,,0.00,WUHU216HW,2013-07-23 05:00:00,
2013-07-23 01:05:00,70.7,11.5,29.72,SW,225,0.4,1.8,1,0.00,,,0.00,WUHU216HW,2013-07-23 05:05:00,
2013-07-23 01:10:00,70.7,11.5,29.72,SSW,203,0.4,1.8,1,0.00,,,0.00,WUHU216HW,2013-07-23 05:10:00,
2013-07-23 01:15:00,70.7,11.5,29.72,NW,315,0.0,0.4,1,0.00,,,0.00,WUHU216HW,2013-07-23 05:15:00,
2013-07-23 01:20:00,70.7,11.5,29.72,WNW,293,0.4,0.7,1,0.00,,,0.00,WUHU216HW,2013-07-23 05:20:00,
2013-07-23 01:25:00,70.9,11.7,29.71,North,0,1.1,1.1,1,0.00,,,0.00,WUHU216HW,2013-07-23 05:25:00,
2013-07-23 01:30:00,70.9,11.7,29.71,NW,315,1.1,1.1,1,0.00,,,0.00,WUHU216HW,2013-07-23 05:30:00,
2013-07-23 01:35:00,70.9,11.7,29.71,South,180,0.7,1.1,1,0.00,,,0.00,WUHU216HW,2013-07-23 05:35:00,
2013-07-23 01:40:00,70.9,11.7,29.71,SW,225,0.0,1.1,1,0.00,,,0.00,WUHU216HW,2013-07-23 05:40:00,
2013-07-23 01:45:00,70.9,11.7,29.71,SW,225,0.7,1.1,1,0.00,,,0.00,WUHU216HW,2013-07-23 05:45:00,
2013-07-23 01:50:00,70.9,11.7,29.70,NNE,23,4.5,4.5,1,0.00,,,0.00,WUHU216HW,2013-07-23 05:50:00,
2013-07-23 01:55:00,70.9,11.7,29.70,WNW,293,2.0,4.5,1,0.00,,,0.00,WUHU216HW,2013-07-23 05:55:00,
2013-07-23 02:00:00,70.7,11.5,29.70,North,0,0.0,2.0,1,0.00,,,0.00,WUHU216HW,2013-07-23 06:00:00,
2013-07-23 02:05:00,70.7,11.5,29.70,NW,315,0.0,0.7,1,0.00,,,0.00,WUHU216HW,2013-07-23 06:05:00,
2013-07-23 02:10:00,70.7,11.5,29.69,South,180,0.0,0.7,1,0.00,,,0.00,WUHU216HW,2013-07-23 06:10:00,
2013-07-23 02:15:00,70.7,11.5,29.69,South,180,0.0,0.0,1,0.00,,,0.00,WUHU216HW,2013-07-23 06:15:00,
2013-07-23 02:20:00,70.7,11.5,29.69,NNW,338,0.0,0.0,1,0.00,,,0.00,WUHU216HW,2013-07-23 06:20:00,
2013-07-23 02:25:00,70.6,11.3,29.69,SSE,158,0.0,0.0,1,0.00,,,0.00,WUHU216HW,2013-07-23 06:25:00,
2013-07-23 02:30:00,70.6,11.3,29.69,South,180,0.7,1.1,1,0.00,,,0.00,WUHU216HW,2013-07-23 06:30:00,
2013-07-23 02:35:00,70.6,11.3,29.69,SSE,158,0.4,1.1,1,0.00,,,0.00,WUHU216HW,2013-07-23 06:35:00,
2013-07-23 02:40:00,70.6,11.3,29.68,South,180,0.9,1.1,1,0.00,,,0.00,WUHU216HW,2013-07-23 06:40:00,
2013-07-23 02:45:00,70.6,11.3,29.68,South,180,0.2,1.1,1,0.00,,,0.00,WUHU216HW,2013-07-23 06:45:00,
2013-07-23 02:50:00,70.6,11.3,29.68,South,180,0.0,0.9,1,0.00,,,0.00,WUHU216HW,2013-07-23 06:50:00,
2013-07-23 02:55:00,70.6,11.3,29.67,South,180,0.0,0.0,1,0.00,,,0.00,WUHU216HW,2013-07-23 06:55:00,
2013-07-23 03:00:00,70.6,11.3,29.67,South,180,0.2,0.9,1,0.00,,,0.00,WUHU216HW,2013-07-23 07:00:00,
2013-07-23 03:05:00,70.7,11.5,29.66,West,270,0.7,0.9,1,0.00,,,0.00,WUHU216HW,2013-07-23 07:05:00,
2013-07-23 03:10:00,70.6,11.3,29.67,West,270,0.0,0.7,1,0.00,,,0.00,WUHU216HW,2013-07-23 07:10:00,
2013-07-23 03:15:00,70.6,11.3,29.66,West,270,0.0,0.7,1,0.00,,,0.00,WUHU216HW,2013-07-23 07:15:00,
2013-07-23 03:20:00,70.6,11.3,29.66,West,270,0.2,0.2,1,0.00,,,0.00,WUHU216HW,2013-07-23 07:20:00,
2013-07-23 03:25:00,70.6,11.3,29.66,West,270,0.4,0.7,1,0.00,,,0.00,WUHU216HW,2013-07-23 07:25:00,
2013-07-23 03:30:00,70.6,11.3,29.66,West,270,0.0,0.7,1,0.00,,,0.00,WUHU216HW,2013-07-23 07:30:00,
2013-07-23 03:35:00,70.7,11.5,29.66,West,270,0.0,0.4,1,0.00,,,0.00,WUHU216HW,2013-07-23 07:35:00,
2013-07-23 03:40:00,70.6,11.3,29.65,West,270,0.0,0.0,1,0.00,,,0.00,WUHU216HW,2013-07-23 07:40:00,
2013-07-23 03:45:00,70.6,11.3,29.66,West,270,0.0,0.0,1,0.00,,,0.00,WUHU216HW,2013-07-23 07:45:00,
2013-07-23 03:50:00,70.7,11.5,29.65,West,270,0.0,0.0,1,0.00,,,0.00,WUHU216HW,2013-07-23 07:50:00,
2013-07-23 03:55:00,70.6,11.3,29.65,West,270,0.0,0.0,1,0.00,,,0.00,WUHU216HW,2013-07-23 07:55:00,
2013-07-23 04:00:00,70.6,11.3,29.65,West,270,0.0,0.4,1,0.00,,,0.00,WUHU216HW,2013-07-23 08:00:00,
2013-07-23 04:05:00,70.6,11.3,29.65,West,270,0.0,0.4,1,0.00,,,0.00,WUHU216HW,2013-07-23 08:05:00,
2013-07-23 04:10:00,70.6,11.3,29.65,West,270,0.0,0.0,1,0.00,,,0.00,WUHU216HW,2013-07-23 08:10:00,
2013-07-23 04:15:00,70.7,11.5,29.65,West,270,0.0,0.0,1,0.00,,,0.00,WUHU216HW,2013-07-23 08:15:00,
2013-07-23 04:20:00,70.7,11.5,29.65,West,270,0.0,0.7,1,0.00,,,0.00,WUHU216HW,2013-07-23 08:20:00,
2013-07-23 04:25:00,70.9,11.7,29.64,West,270,0.0,0.7,1,0.00,,,0.00,WUHU216HW,2013-07-23 08:25:00,
2013-07-23 04:30:00,70.9,11.7,29.64,West,270,0.0,0.0,1,0.00,,,0.00,WUHU216HW,2013-07-23 08:30:00,
2013-07-23 04:35:00,70.9,11.7,29.64,West,270,0.0,0.0,1,0.00,,,0.00,WUHU216HW,2013-07-23 08:35:00,
2013-07-23 04:40:00,70.9,11.7,29.64,West,270,0.0,0.0,1,0.00,,,0.00,WUHU216HW,2013-07-23 08:40:00,
2013-07-23 04:45:00,71.1,11.8,29.64,West,270,0.0,0.0,1,0.00,,,0.00,WUHU216HW,2013-07-23 08:45:00,
2013-07-23 04:50:00,71.1,11.8,29.63,West,270,0.0,0.0,1,0.00,,,0.00,WUHU216HW,2013-07-23 08:50:00,
2013-07-23 04:55:00,71.3,12.0,29.63,West,270,0.0,0.0,1,0.00,,,0.00,WUHU216HW,2013-07-23 08:55:00,
2013-07-23 05:00:00,71.3,12.0,29.62,West,270,0.0,0.0,1,0.00,,,0.00,WUHU216HW,2013-07-23 09:00:00,
2013-07-23 05:05:00,71.3,12.0,29.62,West,270,0.2,0.2,1,0.00,,,0.00,WUHU216HW,2013-07-23 09:05:00,
2013-07-23 05:10:00,71.3,12.0,29.62,West,270,0.0,0.2,1,0.00,,,0.00,WUHU216HW,2013-07-23 09:10:00,
2013-07-23 05:15:00,71.5,12.1,29.62,West,270,0.0,0.0,1,0.00,,,0.00,WUHU216HW,2013-07-23 09:15:00,
2013-07-23 05:20:00,71.5,12.1,29.62,WSW,248,0.0,0.0,1,0.00,,,0.00,WUHU216HW,2013-07-23 09:20:00,
2013-07-23 05:25:00,71.6,12.2,29.62,SW,225,0.4,0.9,1,0.00,,,0.00,WUHU216HW,2013-07-23 09:25:00,
2013-07-23 05:30:00,71.6,12.2,29.62,SSW,203,2.0,2.0,1,0.00,,,0.00,WUHU216HW,2013-07-23 09:30:00,
2013-07-23 05:35:00,71.8,12.4,29.62,SSW,203,0.4,2.0,1,0.00,,,0.00,WUHU216HW,2013-07-23 09:35:00,
2013-07-23 05:40:00,71.8,12.4,29.61,SSW,203,1.1,1.6,1,0.00,,,0.00,WUHU216HW,2013-07-23 09:40:00,
2013-07-23 05:45:00,72.0,12.5,29.62,SSE,158,0.9,1.8,1,0.00,,,0.00,WUHU216HW,2013-07-23 09:45:00,
2013-07-23 05:50:00,72.0,12.5,29.62,SE,135,0.7,1.8,1,0.00,,,0.00,WUHU216HW,2013-07-23 09:50:00,
2013-07-23 05:55:00,72.0,12.5,29.62,WSW,248,1.1,1.1,1,0.00,,,0.00,WUHU216HW,2013-07-23 09:55:00,
2013-07-23 06:00:00,72.2,12.7,29.61,WSW,248,1.8,1.8,1,0.00,,,0.00,WUHU216HW,2013-07-23 10:00:00,
2013-07-23 06:05:00,72.2,12.7,29.61,SW,225,0.0,2.2,1,0.00,,,0.00,WUHU216HW,2013-07-23 10:05:00,
2013-07-23 06:10:00,72.2,12.7,29.61,SW,225,2.7,2.7,1,0.00,,,0.00,WUHU216HW,2013-07-23 10:10:00,
2013-07-23 06:15:00,72.2,12.7,29.61,SE,135,1.8,2.7,1,0.00,,,0.00,WUHU216HW,2013-07-23 10:15:00,
2013-07-23 06:20:00,72.2,12.7,29.61,SE,135,2.2,2.2,1,0.00,,,0.00,WUHU216HW,2013-07-23 10:20:00,
2013-07-23 06:25:00,72.0,12.5,29.61,SW,225,3.1,3.1,1,0.00,,,0.00,WUHU216HW,2013-07-23 10:25:00,
2013-07-23 06:30:00,72.2,12.7,29.60,SW,225,5.6,5.6,1,0.00,,,0.00,WUHU216HW,2013-07-23 10:30:00,
2013-07-23 06:35:00,72.0,12.5,29.60,SW,225,2.0,5.6,1,0.00,,,0.00,WUHU216HW,2013-07-23 10:35:00,
2013-07-23 06:40:00,72.0,12.5,29.60,SSW,203,0.9,5.6,1,0.00,,,0.00,WUHU216HW,2013-07-23 10:40:00,
2013-07-23 06:45:00,72.2,12.7,29.60,SSW,203,0.9,2.0,1,0.00,,,0.00,WUHU216HW,2013-07-23 10:45:00,
2013-07-23 06:50:00,72.2,12.7,29.60,SW,225,2.5,2.5,1,0.00,,,0.00,WUHU216HW,2013-07-23 10:50:00,
2013-07-23 06:55:00,72.2,12.7,29.60,SSE,158,2.2,2.5,1,0.00,,,0.00,WUHU216HW,2013-07-23 10:55:00,
2013-07-23 07:00:00,72.5,13.0,29.60,SW,225,3.4,3.4,1,0.00,,,0.00,WUHU216HW,2013-07-23 11:00:00,
2013-07-23 07:05:00,72.7,13.2,29.60,SSW,203,1.8,3.4,1,0.00,,,0.00,WUHU216HW,2013-07-23 11:05:00,
2013-07-23 07:10:00,72.9,13.2,29.60,SW,225,1.8,3.4,1,0.00,,,0.00,WUHU216HW,2013-07-23 11:10:00,
2013-07-23 07:15:00,73.1,13.4,29.60,SSW,203,1.6,1.8,1,0.00,,,0.00,WUHU216HW,2013-07-23 11:15:00,
2013-07-23 07:20:00,73.4,13.7,29.60,SW,225,2.2,2.2,1,0.00,,,0.00,WUHU216HW,2013-07-23 11:20:00,
2013-07-23 07:25:00,73.4,13.7,29.60,SW,225,1.8,2.2,1,0.00,,,0.00,WUHU216HW,2013-07-23 11:25:00,
2013-07-23 07:30:00,73.4,13.7,29.60,South,180,1.3,2.0,1,0.00,,,0.00,WUHU216HW,2013-07-23 11:30:00,
2013-07-23 07:36:00,73.3,13.5,29.60,WSW,248,1.8,1.8,1,0.00,,,0.00,WUHU216HW,2013-07-23 11:36:00,
2013-07-23 07:41:00,73.3,13.5,29.60,SSW,203,1.8,2.0,1,0.00,,,0.00,WUHU216HW,2013-07-23 11:41:00,
2013-07-23 07:46:00,73.3,13.5,29.60,SW,225,1.8,2.0,1,0.00,,,0.00,WUHU216HW,2013-07-23 11:46:00,
2013-07-23 07:51:00,73.3,13.5,29.60,SW,225,0.9,1.8,1,0.00,,,0.00,WUHU216HW,2013-07-23 11:51:00,
2013-07-23 07:56:00,73.1,13.4,29.60,South,180,0.7,1.8,1,0.00,,,0.00,WUHU216HW,2013-07-23 11:56:00,
2013-07-23 08:01:00,73.1,13.4,29.60,SW,225,1.1,1.8,1,0.00,,,0.00,WUHU216HW,2013-07-23 12:01:00,
2013-07-23 08:06:00,72.9,13.2,29.60,SSW,203,1.8,1.8,1,0.00,,,0.00,WUHU216HW,2013-07-23 12:06:00,
2013-07-23 08:11:00,72.7,13.2,29.60,SSE,158,2.0,2.0,1,0.00,,,0.00,WUHU216HW,2013-07-23 12:11:00,
2013-07-23 08:16:00,72.7,13.2,29.59,SW,225,0.2,2.0,1,0.00,,,0.00,WUHU216HW,2013-07-23 12:16:00,
2013-07-23 08:21:00,72.7,13.2,29.60,SW,225,0.4,2.0,1,0.00,,,0.00,WUHU216HW,2013-07-23 12:21:00,
2013-07-23 08:26:00,72.7,13.2,29.60,SSW,203,1.1,1.1,1,0.00,,,0.00,WUHU216HW,2013-07-23 12:26:00,
2013-07-23 08:31:00,72.7,13.2,29.60,ESE,113,2.5,2.5,1,0.00,,,0.00,WUHU216HW,2013-07-23 12:31:00,
2013-07-23 08:36:00,72.7,13.2,29.60,SW,225,2.5,2.5,1,0.00,,,0.00,WUHU216HW,2013-07-23 12:36:00,
2013-07-23 08:41:00,73.4,13.7,29.59,SE,135,1.3,2.5,1,0.00,,,0.00,WUHU216HW,2013-07-23 12:41:00,
2013-07-23 08:46:00,73.6,13.8,29.59,SSW,203,1.3,2.5,1,0.00,,,0.00,WUHU216HW,2013-07-23 12:46:00,
2013-07-23 08:51:00,73.8,14.0,29.59,SW,225,1.3,1.3,1,0.00,,,0.00,WUHU216HW,2013-07-23 12:51:00,
2013-07-23 08:56:00,73.8,14.0,29.58,NE,45,2.5,2.5,1,0.00,,,0.00,WUHU216HW,2013-07-23 12:56:00,
2013-07-23 09:01:00,74.0,14.0,29.58,SW,225,0.9,3.1,1,0.00,,,0.00,WUHU216HW,2013-07-23 13:01:00,
2013-07-23 09:06:00,74.5,14.4,29.58,SW,225,1.3,3.1,1,0.00,,,0.00,WUHU216HW,2013-07-23 13:06:00,
2013-07-23 09:11:00,75.8,15.4,29.58,SSE,158,1.3,2.7,1,0.00,,,0.00,WUHU216HW,2013-07-23 13:11:00,
2013-07-23 09:16:00,76.9,16.2,29.57,WNW,293,1.3,2.7,1,0.00,,,0.00,WUHU216HW,2013-07-23 13:16:00,
2013-07-23 09:21:00,77.4,16.7,29.57,SSE,158,0.2,1.3,1,0.00,,,0.00,WUHU216HW,2013-07-23 13:21:00,
2013-07-23 09:26:00,77.9,17.0,29.57,SSW,203,1.1,1.3,1,0.00,,,0.00,WUHU216HW,2013-07-23 13:26:00,
2013-07-23 09:31:00,79.0,17.8,29.57,South,180,1.3,1.3,1,0.00,,,0.00,WUHU216HW,2013-07-23 13:31:00,
2013-07-23 09:36:00,78.5,17.4,29.57,SW,225,1.8,1.8,1,0.00,,,0.00,WUHU216HW,2013-07-23 13:36:00,
2013-07-23 09:41:00,77.8,16.9,29.57,WSW,248,0.9,1.8,1,0.00,,,0.00,WUHU216HW,2013-07-23 13:41:00,
2013-07-23 09:46:00,77.4,16.7,29.57,SW,225,1.1,1.8,1,0.00,,,0.00,WUHU216HW,2013-07-23 13:46:00,
2013-07-23 09:51:00,77.2,16.5,29.57,SW,225,1.1,1.6,1,0.00,,,0.00,WUHU216HW,2013-07-23 13:51:00,
2013-07-23 09:56:00,76.5,15.9,29.57,SW,225,0.2,1.1,1,0.00,,,0.00,WUHU216HW,2013-07-23 13:56:00,
2013-07-23 10:01:00,76.1,15.7,29.58,SW,225,0.0,0.4,1,0.00,,,0.00,WUHU216HW,2013-07-23 14:01:00,
2013-07-23 10:06:00,76.3,15.9,29.58,SW,225,1.1,1.1,1,0.00,,,0.00,WUHU216HW,2013-07-23 14:06:00,
2013-07-23 10:11:00,76.3,15.9,29.57,SW,225,1.1,1.8,1,0.00,,,0.00,WUHU216HW,2013-07-23 14:11:00,
2013-07-23 10:16:00,76.3,15.9,29.57,SW,225,1.1,1.8,1,0.00,,,0.00,WUHU216HW,2013-07-23 14:16:00,
2013-07-23 10:21:00,76.9,16.2,29.57,SW,225,0.9,1.8,1,0.00,,,0.00,WUHU216HW,2013-07-23 14:21:00,
2013-07-23 10:26:00,78.3,17.3,29.57,SW,225,1.1,1.1,1,0.00,,,0.00,WUHU216HW,2013-07-23 14:26:00,
2013-07-23 10:31:00,81.0,19.4,29.57,SW,225,0.9,2.0,1,0.00,,,0.00,WUHU216HW,2013-07-23 14:31:00,
2013-07-23 10:36:00,82.1,20.3,29.57,SSW,203,0.7,2.0,1,0.00,,,0.00,WUHU216HW,2013-07-23 14:36:00,
2013-07-23 10:41:00,82.4,20.5,29.57,SSE,158,1.8,2.2,1,0.00,,,0.00,WUHU216HW,2013-07-23 14:41:00,
2013-07-23 10:46:00,82.8,20.8,29.56,SSW,203,1.1,2.2,1,0.00,,,0.00,WUHU216HW,2013-07-23 14:46:00,
2013-07-23 10:51:00,82.8,20.8,29.57,WSW,248,0.4,1.8,1,0.00,,,0.00,WUHU216HW,2013-07-23 14:51:00,
2013-07-23 10:56:00,82.4,20.5,29.57,WSW,248,0.7,1.3,1,0.00,,,0.00,WUHU216HW,2013-07-23 14:56:00,
2013-07-23 11:01:00,81.9,20.1,29.57,SW,225,0.0,0.7,1,0.00,,,0.00,WUHU216HW,2013-07-23 15:01:00,
2013-07-23 11:06:00,82.1,20.3,29.57,SSW,203,1.6,1.6,1,0.00,,,0.00,WUHU216HW,2013-07-23 15:06:00,
2013-07-23 11:11:00,83.5,21.2,29.57,SSE,158,4.0,4.0,1,0.00,,,0.00,WUHU216HW,2013-07-23 15:11:00,
2013-07-23 11:16:00,83.0,20.9,29.57,NNW,338,0.0,4.0,1,0.00,,,0.00,WUHU216HW,2013-07-23 15:16:00,
2013-07-23 11:21:00,82.6,20.6,29.57,NW,315,0.4,2.5,1,0.00,,,0.00,WUHU216HW,2013-07-23 15:21:00,
2013-07-23 11:26:00,82.4,20.5,29.57,NNE,23,1.1,1.1,1,0.00,,,0.00,WUHU216HW,2013-07-23 15:26:00,
2013-07-23 11:31:00,81.9,20.1,29.57,West,270,1.1,1.8,1,0.00,,,0.00,WUHU216HW,2013-07-23 15:31:00,
2013-07-23 11:36:00,82.3,20.3,29.57,SSE,158,1.1,1.8,1,0.00,,,0.00,WUHU216HW,2013-07-23 15:36:00,
2013-07-23 11:41:00,82.4,20.5,29.56,South,180,0.9,2.5,1,0.00,,,0.00,WUHU216HW,2013-07-23 15:41:00,
2013-07-23 11:46:00,82.4,20.5,29.57,South,180,0.4,2.5,1,0.00,,,0.00,WUHU216HW,2013-07-23 15:46:00,
2013-07-23 11:51:00,82.4,20.5,29.57,SSW,203,1.1,1.1,1,0.00,,,0.00,WUHU216HW,2013-07-23 15:51:00,
2013-07-23 11:56:00,83.0,20.9,29.57,SSW,203,1.8,1.8,1,0.00,,,0.00,WUHU216HW,2013-07-23 15:56:00,
2013-07-23 12:01:00,82.8,20.8,29.57,WNW,293,0.0,1.8,1,0.00,,,0.00,WUHU216HW,2013-07-23 16:01:00,
2013-07-23 12:06:00,82.4,20.5,29.56,SW,225,0.2,1.8,1,0.00,,,0.00,WUHU216HW,2013-07-23 16:06:00,
2013-07-23 12:11:00,82.1,20.3,29.56,SSE,158,0.2,0.7,1,0.00,,,0.00,WUHU216HW,2013-07-23 16:11:00,
2013-07-23 12:16:00,81.7,20.0,29.56,ESE,113,1.1,1.1,1,0.00,,,0.00,WUHU216HW,2013-07-23 16:16:00,
2013-07-23 12:21:00,82.1,20.3,29.56,SE,135,2.5,4.3,1,0.00,,,0.00,WUHU216HW,2013-07-23 16:21:00,
2013-07-23 12:26:00,83.0,20.9,29.56,SSW,203,1.6,4.3,1,0.00,,,0.00,WUHU216HW,2013-07-23 16:26:00,
2013-07-23 12:31:00,83.3,21.2,29.56,WSW,248,0.2,2.0,1,0.00,,,0.00,WUHU216HW,2013-07-23 16:31:00,
2013-07-23 12:36:00,83.9,21.5,29.55,NNW,338,0.4,1.6,1,0.00,,,0.00,WUHU216HW,2013-07-23 16:36:00,
2013-07-23 12:41:00,84.2,21.8,29.55,SSW,203,1.1,1.8,1,0.00,,,0.00,WUHU216HW,2013-07-23 16:41:00,
2013-07-23 12:46:00,85.3,22.7,29.55,South,180,1.1,2.5,1,0.00,,,0.00,WUHU216HW,2013-07-23 16:46:00,
2013-07-23 12:51:00,85.5,22.8,29.55,South,180,1.8,2.5,1,0.00,,,0.00,WUHU216HW,2013-07-23 16:51:00,
2013-07-23 12:56:00,85.9,23.0,29.55,NW,315,0.4,1.8,1,0.00,,,0.00,WUHU216HW,2013-07-23 16:56:00,
2013-07-23 13:01:00,85.7,23.0,29.55,NNE,23,0.9,0.9,1,0.00,,,0.00,WUHU216HW,2013-07-23 17:01:00,
2013-07-23 13:06:00,86.2,23.4,29.55,SW,225,2.2,2.2,1,0.00,,,0.00,WUHU216HW,2013-07-23 17:06:00,
2013-07-23 13:11:00,87.7,24.5,29.55,SSE,158,1.3,3.4,1,0.00,,,0.00,WUHU216HW,2013-07-23 17:11:00,
2013-07-23 13:16:00,88.2,24.9,29.55,SW,225,1.1,3.4,1,0.00,,,0.00,WUHU216HW,2013-07-23 17:16:00,
2013-07-23 13:21:00,88.6,25.2,29.54,SE,135,4.7,4.7,1,0.00,,,0.00,WUHU216HW,2013-07-23 17:21:00,
2013-07-23 13:26:00,88.7,25.3,29.54,SSW,203,2.2,4.7,1,0.00,,,0.00,WUHU216HW,2013-07-23 17:26:00,
2013-07-23 13:31:00,89.1,25.6,29.54,SE,135,3.4,3.4,1,0.00,,,0.00,WUHU216HW,2013-07-23 17:31:00,
2013-07-23 13:36:00,89.5,25.8,29.54,SW,225,2.9,3.4,1,0.00,,,0.00,WUHU216HW,2013-07-23 17:36:00,
2013-07-23 13:41:00,88.6,25.2,29.54,South,180,1.8,3.4,1,0.00,,,0.00,WUHU216HW,2013-07-23 17:41:00,
2013-07-23 13:46:00,87.7,24.5,29.53,SW,225,1.1,2.9,1,0.00,,,0.00,WUHU216HW,2013-07-23 17:46:00,
2013-07-23 13:51:00,86.8,23.8,29.53,WSW,248,3.1,3.1,1,0.00,,,0.00,WUHU216HW,2013-07-23 17:51:00,
2013-07-23 13:56:00,86.4,23.5,29.53,WNW,293,1.6,3.1,1,0.00,,,0.00,WUHU216HW,2013-07-23 17:56:00,
2013-07-23 14:01:00,86.9,23.9,29.52,SSW,203,1.3,2.9,1,0.00,,,0.00,WUHU216HW,2013-07-23 18:01:00,
2013-07-23 14:06:00,88.2,24.9,29.52,SW,225,1.1,2.9,1,0.00,,,0.00,WUHU216HW,2013-07-23 18:06:00,
2013-07-23 14:12:00,88.0,24.8,29.52,SSW,203,1.8,3.4,1,0.00,,,0.00,WUHU216HW,2013-07-23 18:12:00,
2013-07-23 14:17:00,88.9,25.4,29.52,SSW,203,1.8,3.6,1,0.00,,,0.00,WUHU216HW,2013-07-23 18:17:00,
2013-07-23 14:22:00,88.7,25.3,29.52,WSW,248,1.6,3.6,1,0.00,,,0.00,WUHU216HW,2013-07-23 18:22:00,
2013-07-23 14:27:00,88.4,25.0,29.52,SW,225,2.7,3.4,1,0.00,,,0.00,WUHU216HW,2013-07-23 18:27:00,
2013-07-23 14:32:00,88.2,24.9,29.52,SSE,158,2.5,3.4,1,0.00,,,0.00,WUHU216HW,2013-07-23 18:32:00,
2013-07-23 14:37:00,87.8,24.7,29.52,SW,225,3.4,3.4,1,0.00,,,0.00,WUHU216HW,2013-07-23 18:37:00,
2013-07-23 14:42:00,88.0,24.8,29.52,SW,225,2.5,3.4,1,0.00,,,0.00,WUHU216HW,2013-07-23 18:42:00,
2013-07-23 14:47:00,88.9,25.4,29.52,WSW,248,1.6,4.5,1,0.00,,,0.00,WUHU216HW,2013-07-23 18:47:00,
2013-07-23 14:53:00,89.3,25.7,29.52,SW,225,0.9,4.5,1,0.00,,,0.00,WUHU216HW,2013-07-23 18:53:00,
2013-07-23 14:58:00,89.1,25.6,29.52,ENE,68,2.5,3.6,1,0.00,,,0.00,WUHU216HW,2013-07-23 18:58:00,
2013-07-23 15:03:00,89.1,25.6,29.52,SW,225,0.7,3.6,1,0.00,,,0.00,WUHU216HW,2013-07-23 19:03:00,
2013-07-23 15:08:00,89.3,25.7,29.52,SW,225,1.8,2.5,1,0.00,,,0.00,WUHU216HW,2013-07-23 19:08:00,
2013-07-23 15:13:00,89.1,25.6,29.51,SW,225,2.7,3.8,1,0.00,,,0.00,WUHU216HW,2013-07-23 19:13:00,
2013-07-23 15:18:00,89.5,25.8,29.51,SW,225,2.0,3.8,1,0.00,,,0.00,WUHU216HW,2013-07-23 19:18:00,
2013-07-23 15:23:00,89.5,25.8,29.52,SW,225,2.5,2.5,1,0.00,,,0.00,WUHU216HW,2013-07-23 19:23:00,
2013-07-23 15:28:00,89.3,25.7,29.51,SW,225,2.0,3.1,1,0.00,,,0.00,WUHU216HW,2013-07-23 19:28:00,
2013-07-23 15:33:00,89.8,26.1,29.52,WSW,248,1.3,3.4,1,0.00,,,0.00,WUHU216HW,2013-07-23 19:33:00,
2013-07-23 15:38:00,89.3,25.7,29.52,WSW,248,1.3,3.4,1,0.00,,,0.00,WUHU216HW,2013-07-23 19:38:00,
2013-07-23 15:43:00,88.6,25.2,29.51,West,270,1.1,2.9,1,0.00,,,0.00,WUHU216HW,2013-07-23 19:43:00,
2013-07-23 15:48:00,86.4,23.5,29.52,West,270,0.4,2.7,1,0.00,,,0.00,WUHU216HW,2013-07-23 19:48:00,
2013-07-23 15:53:00,84.2,21.8,29.52,NW,315,2.2,2.7,1,0.00,,,0.00,WUHU216HW,2013-07-23 19:53:00,
2013-07-23 15:58:00,82.4,20.5,29.52,NNW,338,0.7,3.4,1,0.00,,,0.00,WUHU216HW,2013-07-23 19:58:00,
2013-07-23 16:03:00,80.6,19.1,29.52,NE,45,0.0,3.4,1,0.00,,,0.00,WUHU216HW,2013-07-23 20:03:00,
2013-07-23 16:08:00,80.3,18.8,29.52,NE,45,0.4,1.8,1,0.00,,,0.00,WUHU216HW,2013-07-23 20:08:00,
2013-07-23 16:13:00,79.6,18.2,29.52,NE,45,0.0,1.3,1,0.00,,,0.00,WUHU216HW,2013-07-23 20:13:00,
2013-07-23 16:18:00,78.8,17.6,29.52,SSW,203,0.4,1.8,1,0.00,,,0.00,WUHU216HW,2013-07-23 20:18:00,
2013-07-23 16:23:00,78.1,17.1,29.51,SE,135,0.0,1.8,1,0.00,,,0.00,WUHU216HW,2013-07-23 20:23:00,
2013-07-23 16:28:00,77.4,16.7,29.51,SE,135,0.0,1.3,1,0.00,,,0.00,WUHU216HW,2013-07-23 20:28:00,
2013-07-23 16:34:00,77.0,16.4,29.52,SE,135,0.0,0.2,1,0.00,,,0.00,WUHU216HW,2013-07-23 20:34:00,
2013-07-23 16:39:00,76.7,16.1,29.52,SE,135,0.0,1.1,1,0.00,,,0.00,WUHU216HW,2013-07-23 20:39:00,
2013-07-23 16:44:00,76.3,15.9,29.52,SE,135,0.2,1.1,1,0.00,,,0.00,WUHU216HW,2013-07-23 20:44:00,
2013-07-23 16:49:00,76.3,15.9,29.52,SSE,158,1.3,1.6,1,0.00,,,0.00,WUHU216HW,2013-07-23 20:49:00,
2013-07-23 16:54:00,76.3,15.9,29.51,SSE,158,0.7,1.6,1,0.00,,,0.00,WUHU216HW,2013-07-23 20:54:00,
2013-07-23 16:59:00,76.9,16.2,29.51,SSE,158,0.2,0.9,1,0.00,,,0.00,WUHU216HW,2013-07-23 20:59:00,
2013-07-23 17:04:00,77.8,16.9,29.51,SSE,158,0.7,0.9,1,0.00,,,0.00,WUHU216HW,2013-07-23 21:04:00,
2013-07-23 17:09:00,78.7,17.6,29.51,SSW,203,1.6,1.8,1,0.00,,,0.00,WUHU216HW,2013-07-23 21:09:00,
2013-07-23 17:14:00,79.4,18.1,29.51,South,180,0.4,1.8,1,0.00,,,0.00,WUHU216HW,2013-07-23 21:14:00,
2013-07-23 17:19:00,79.6,18.2,29.51,SSE,158,1.8,2.5,1,0.00,,,0.00,WUHU216HW,2013-07-23 21:19:00,
2013-07-23 17:24:00,79.7,18.4,29.51,SW,225,1.8,2.5,1,0.00,,,0.00,WUHU216HW,2013-07-23 21:24:00,
2013-07-23 17:29:00,79.6,18.2,29.51,SSW,203,0.2,2.0,1,0.00,,,0.00,WUHU216HW,2013-07-23 21:29:00,
2013-07-23 17:34:00,79.0,17.8,29.50,SW,225,0.4,1.8,1,0.00,,,0.00,WUHU216HW,2013-07-23 21:34:00,
2013-07-23 17:39:00,78.7,17.6,29.50,SW,225,0.2,1.8,1,0.00,,,0.00,WUHU216HW,2013-07-23 21:39:00,
2013-07-23 17:44:00,78.3,17.3,29.51,SW,225,2.0,2.0,1,0.00,,,0.00,WUHU216HW,2013-07-23 21:44:00,
2013-07-23 17:49:00,78.3,17.3,29.51,SW,225,0.9,2.0,1,0.00,,,0.00,WUHU216HW,2013-07-23 21:49:00,
2013-07-23 17:54:00,78.3,17.3,29.50,SSE,158,2.0,2.0,1,0.00,,,0.00,WUHU216HW,2013-07-23 21:54:00,
2013-07-23 17:59:00,78.1,17.1,29.50,SSE,158,0.4,2.0,1,0.00,,,0.00,WUHU216HW,2013-07-23 21:59:00,
2013-07-23 18:04:00,77.8,16.9,29.49,East,90,1.3,1.3,1,0.00,,,0.00,WUHU216HW,2013-07-23 22:04:00,
2013-07-23 18:09:00,77.4,16.7,29.49,NE,45,0.0,1.3,1,0.00,,,0.00,WUHU216HW,2013-07-23 22:09:00,
2013-07-23 18:14:00,77.6,16.7,29.49,NNW,338,1.3,1.3,1,0.00,,,0.00,WUHU216HW,2013-07-23 22:14:00,
2013-07-23 18:19:00,77.2,16.5,29.49,NNW,338,0.0,1.3,1,0.00,,,0.00,WUHU216HW,2013-07-23 22:19:00,
2013-07-23 18:25:00,77.0,16.4,29.49,NNW,338,0.4,1.3,1,0.00,,,0.00,WUHU216HW,2013-07-23 22:25:00,
2013-07-23 18:30:00,76.7,16.1,29.50,NNW,338,0.0,1.3,1,0.00,,,0.00,WUHU216HW,2013-07-23 22:30:00,
2013-07-23 18:35:00,76.7,16.1,29.50,NNW,338,0.0,0.7,1,0.00,,,0.00,WUHU216HW,2013-07-23 22:35:00,
2013-07-23 18:40:00,76.5,15.9,29.51,NNW,338,0.4,0.4,1,0.00,,,0.00,WUHU216HW,2013-07-23 22:40:00,
2013-07-23 18:45:00,76.3,15.9,29.51,NNW,338,0.4,0.4,1,0.00,,,0.00,WUHU216HW,2013-07-23 22:45:00,
2013-07-23 18:50:00,76.1,15.7,29.51,NNW,338,0.0,0.4,1,0.00,,,0.00,WUHU216HW,2013-07-23 22:50:00,
2013-07-23 18:55:00,76.0,15.5,29.51,NNW,338,0.0,0.0,1,0.00,,,0.00,WUHU216HW,2013-07-23 22:55:00,
2013-07-23 19:00:00,76.0,15.5,29.51,NNW,338,0.0,0.0,1,0.00,,,0.00,WUHU216HW,2013-07-23 23:00:00,
2013-07-23 19:06:00,75.8,15.4,29.52,NNW,338,0.0,0.0,1,0.00,,,0.00,WUHU216HW,2013-07-23 23:06:00,
2013-07-23 19:11:00,75.6,15.2,29.52,NNW,338,0.0,0.0,1,0.00,,,0.00,WUHU216HW,2013-07-23 23:11:00,
2013-07-23 19:16:00,75.4,15.1,29.52,NNW,338,0.0,0.0,1,0.00,,,0.00,WUHU216HW,2013-07-23 23:16:00,
2013-07-23 19:21:00,75.2,14.9,29.52,NNW,338,0.0,0.0,1,0.00,,,0.00,WUHU216HW,2013-07-23 23:21:00,
2013-07-23 19:26:00,75.1,14.9,29.52,NNW,338,0.0,0.2,1,0.00,,,0.00,WUHU216HW,2013-07-23 23:26:00,
2013-07-23 19:32:00,74.7,14.6,29.53,NNW,338,0.0,0.2,1,0.00,,,0.00,WUHU216HW,2013-07-23 23:32:00,
2013-07-23 19:37:00,74.5,14.4,29.53,NNW,338,0.4,0.4,1,0.00,,,0.00,WUHU216HW,2013-07-23 23:37:00,
2013-07-23 19:42:00,74.3,14.3,29.54,West,270,0.4,1.1,1,0.00,,,0.00,WUHU216HW,2013-07-23 23:42:00,
2013-07-23 19:47:00,74.0,14.0,29.54,NW,315,1.1,1.1,1,0.00,,,0.00,WUHU216HW,2013-07-23 23:47:00,
2013-07-23 19:52:00,73.1,13.4,29.53,North,0,0.2,1.3,1,0.00,,,0.00,WUHU216HW,2013-07-23 23:52:00,
2013-07-23 19:57:00,72.5,13.0,29.53,North,0,0.2,1.3,1,0.00,,,0.00,WUHU216HW,2013-07-23 23:57:00,
2013-07-23 20:02:00,72.2,12.7,29.53,North,0,0.0,0.2,1,0.00,,,0.00,WUHU216HW,2013-07-24 00:02:00,
2013-07-23 20:07:00,72.0,12.5,29.53,North,0,0.0,0.7,1,0.00,,,0.00,WUHU216HW,2013-07-24 00:07:00,
2013-07-23 20:12:00,71.6,12.2,29.53,North,0,0.0,0.7,1,0.00,,,0.00,WUHU216HW,2013-07-24 00:12:00,
2013-07-23 20:17:00,71.5,12.1,29.53,North,0,0.0,0.0,1,0.00,,,0.00,WUHU216HW,2013-07-24 00:17:00,
2013-07-23 20:22:00,71.5,12.1,29.53,North,0,0.0,0.0,1,0.00,,,0.00,WUHU216HW,2013-07-24 00:22:00,
2013-07-23 20:28:00,71.3,12.0,29.53,North,0,0.0,0.2,1,0.00,,,0.00,WUHU216HW,2013-07-24 00:28:00,
2013-07-23 20:33:00,70.9,11.7,29.53,North,0,0.0,0.2,1,0.00,,,0.00,WUHU216HW,2013-07-24 00:33:00,
2013-07-23 20:38:00,70.9,11.7,29.53,North,0,0.4,0.4,1,0.00,,,0.00,WUHU216HW,2013-07-24 00:38:00,
2013-07-23 20:43:00,70.9,11.7,29.52,North,0,0.0,0.4,1,0.00,,,0.00,WUHU216HW,2013-07-24 00:43:00,
2013-07-23 20:49:00,70.7,11.5,29.53,North,0,0.0,0.4,1,0.00,,,0.00,WUHU216HW,2013-07-24 00:49:00,
2013-07-23 20:54:00,70.6,11.3,29.53,North,0,0.0,0.0,1,0.00,,,0.00,WUHU216HW,2013-07-24 00:54:00,
2013-07-23 20:59:00,70.4,11.3,29.53,North,0,0.0,0.0,1,0.00,,,0.00,WUHU216HW,2013-07-24 00:59:00,
2013-07-23 21:04:00,70.4,11.3,29.54,North,0,0.0,0.0,1,0.00,,,0.00,WUHU216HW,2013-07-24 01:04:00,
2013-07-23 21:09:00,70.2,11.1,29.55,North,0,0.0,0.0,1,0.00,,,0.00,WUHU216HW,2013-07-24 01:09:00,
2013-07-23 21:14:00,70.4,11.3,29.55,North,0,0.0,0.0,1,0.00,,,0.00,WUHU216HW,2013-07-24 01:14:00,
2013-07-23 21:20:00,70.4,11.3,29.55,North,0,0.0,0.0,1,0.00,,,0.00,WUHU216HW,2013-07-24 01:20:00,
2013-07-23 21:25:00,70.4,11.3,29.55,North,0,0.0,0.0,1,0.00,,,0.00,WUHU216HW,2013-07-24 01:25:00,
2013-07-23 21:30:00,70.6,11.3,29.55,North,0,0.0,0.0,1,0.00,,,0.00,WUHU216HW,2013-07-24 01:30:00,
2013-07-23 21:35:00,70.6,11.3,29.55,North,0,0.0,0.0,1,0.00,,,0.00,WUHU216HW,2013-07-24 01:35:00,
2013-07-23 21:40:00,70.6,11.3,29.55,North,0,0.0,0.0,1,0.00,,,0.00,WUHU216HW,2013-07-24 01:40:00,
2013-07-23 21:45:00,70.4,11.3,29.54,North,0,0.0,0.0,1,0.00,,,0.00,WUHU216HW,2013-07-24 01:45:00,
2013-07-23 21:50:00,70.2,11.1,29.54,North,0,0.0,0.0,1,0.00,,,0.00,WUHU216HW,2013-07-24 01:50:00,
2013-07-23 21:55:00,70.2,11.1,29.54,North,0,0.0,0.0,1,0.00,,,0.00,WUHU216HW,2013-07-24 01:55:00,
2013-07-23 22:00:00,70.0,11.0,29.55,North,0,0.0,0.0,1,0.00,,,0.00,WUHU216HW,2013-07-24 02:00:00,
2013-07-23 22:05:00,69.8,10.8,29.55,North,0,0.0,0.0,1,0.00,,,0.00,WUHU216HW,2013-07-24 02:05:00,
2013-07-23 22:10:00,69.7,10.7,29.55,North,0,0.0,0.0,1,0.00,,,0.00,WUHU216HW,2013-07-24 02:10:00,
2013-07-23 22:15:00,69.5,10.5,29.55,North,0,0.2,0.2,1,0.00,,,0.00,WUHU216HW,2013-07-24 02:15:00,
2013-07-23 22:20:00,69.5,10.5,29.55,North,0,0.0,0.2,1,0.00,,,0.00,WUHU216HW,2013-07-24 02:20:00,
2013-07-23 22:25:00,69.5,10.5,29.55,North,0,0.0,0.2,1,0.00,,,0.00,WUHU216HW,2013-07-24 02:25:00,
2013-07-23 22:30:00,69.5,10.5,29.55,North,0,0.0,0.0,1,0.00,,,0.00,WUHU216HW,2013-07-24 02:30:00,
2013-07-23 22:35:00,69.7,10.7,29.56,North,0,0.0,0.0,1,0.00,,,0.00,WUHU216HW,2013-07-24 02:35:00,
2013-07-23 22:40:00,69.7,10.7,29.56,North,0,0.0,0.0,1,0.00,,,0.00,WUHU216HW,2013-07-24 02:40:00,
2013-07-23 22:46:00,69.7,10.7,29.57,North,0,0.0,0.0,1,0.00,,,0.00,WUHU216HW,2013-07-24 02:46:00,
2013-07-23 22:51:00,69.8,10.8,29.57,North,0,0.0,0.0,1,0.00,,,0.00,WUHU216HW,2013-07-24 02:51:00,
2013-07-23 22:56:00,69.8,10.8,29.57,North,0,0.0,0.0,1,0.00,,,0.00,WUHU216HW,2013-07-24 02:56:00,
2013-07-23 23:01:00,69.8,10.8,29.57,North,0,0.0,0.0,1,0.00,,,0.00,WUHU216HW,2013-07-24 03:01:00,
2013-07-23 23:06:00,69.8,10.8,29.56,North,0,0.0,0.0,1,0.00,,,0.00,WUHU216HW,2013-07-24 03:06:00,
2013-07-23 23:11:00,70.0,11.0,29.56,North,0,0.0,0.2,1,0.00,,,0.00,WUHU216HW,2013-07-24 03:11:00,
2013-07-23 23:16:00,70.2,11.1,29.56,North,0,0.0,0.2,1,0.00,,,0.00,WUHU216HW,2013-07-24 03:16:00,
2013-07-23 23:21:00,70.2,11.1,29.55,North,0,0.0,0.0,1,0.00,,,0.00,WUHU216HW,2013-07-24 03:21:00,
2013-07-23 23:27:00,70.2,11.1,29.55,North,0,0.0,0.0,1,0.00,,,0.00,WUHU216HW,2013-07-24 03:27:00,
2013-07-23 23:32:00,70.2,11.1,29.55,North,0,0.0,0.0,1,0.00,,,0.00,WUHU216HW,2013-07-24 03:32:00,
2013-07-23 23:37:00,70.0,11.0,29.55,North,0,0.0,0.0,1,0.00,,,0.00,WUHU216HW,2013-07-24 03:37:00,
2013-07-23 23:42:00,70.0,11.0,29.55,North,0,0.0,0.0,1,0.00,,,0.00,WUHU216HW,2013-07-24 03:42:00,
2013-07-23 23:47:00,70.2,11.1,29.55,North,0,0.0,0.0,1,0.00,,,0.00,WUHU216HW,2013-07-24 03:47:00,
2013-07-23 23:52:00,70.2,11.1,29.55,North,0,0.0,0.2,1,0.00,,,0.00,WUHU216HW,2013-07-24 03:52:00,
2013-07-23 23:57:00,70.4,11.3,29.55,North,0,0.2,0.2,1,0.00,,,0.00,WUHU216HW,2013-07-24 03:57:00,